EW1689 Weather Reports


Display with metric or nautical units.
time (UTC)temp
F
wind
direction
speed
MPH
gust
MPH
rain 1hr
in
rain 24hr
in
rain mn
in
humidity
%
barometer
mb
20260902095016 83 0.0 1.0 0.00 0.00 0.00 56 1014.6
20260902094017 83 0.0 2.0 0.00 0.00 0.00 55 1014.6
20260902093017 84 0.0 1.0 0.00 0.00 0.00 54 1014.6
20260902092016 84 0.0 0.0 0.00 0.00 0.00 54 1014.7
20260902091017 85 0.0 3.0 0.00 0.00 0.00 53 1014.9
20260902090016 85 0.0 3.0 0.00 0.00 0.00 53 1014.7
20260902085017 85 0 1.0 3.0 0.00 0.00 0.00 52 1014.7
20260902084017 86 0 1.0 3.0 0.00 0.00 0.00 51 1014.8
20260902083036 86 0 2.0 3.0 0.00 0.00 0.00 51 1014.7
20260902082016 86 0 1.0 4.0 0.00 0.00 0.00 52 1014.7
20260902081016 85 0 2.0 4.0 0.00 0.00 0.00 53 1014.8
20260902080017 84 0.0 2.0 0.00 0.00 0.00 54 1014.6
20260902075016 84 0.0 0.0 0.00 0.00 0.00 53 1014.5
20260902074016 84 0.0 0.0 0.00 0.00 0.00 53 1014.4
20260902073016 84 0.0 0.0 0.00 0.00 0.00 51 1014.4
20260902072036 85 0.0 0.0 0.00 0.00 0.00 50 1014.4
20260902071016 85 0.0 0.0 0.00 0.00 0.00 50 1014.4
20260902070016 85 0.0 0.0 0.00 0.00 0.00 50 1014.3
20260902065016 85 0.0 0.0 0.00 0.00 0.00 50 1014.3
20260902064035 86 0.0 1.0 0.00 0.00 0.00 49 1014.5
20260902063015 86 0 1.0 2.0 0.00 0.00 0.00 46 1014.4
20260902062016 86 0.0 0.0 0.00 0.00 0.00 44 1014.2
20260902061015 87 0.0 1.0 0.00 0.00 0.00 44 1014.4
20260902060015 87 0.0 0.0 0.00 0.00 0.00 44 1014.2
20260902055015 87 0.0 2.0 0.00 0.00 0.00 44 1014.2
20260902054015 87 0.0 0.0 0.00 0.00 0.00 44 1014.2
20260902053015 87 0.0 0.0 0.00 0.00 0.00 44 1014.2
20260902052015 87 0.0 1.0 0.00 0.00 0.00 44 1014.2
20260902051018 87 0.0 0.0 0.00 0.00 0.00 44 1014.1
20260902050037 87 0.0 1.0 0.00 0.00 0.00 44 1014.2
20260902045017 88 0.0 1.0 0.00 0.00 0.00 44 1014.1
20260902044037 87 0.0 1.0 0.00 0.00 0.00 44 1014.1
20260902043037 87 0.0 1.0 0.00 0.00 0.00 45 1014.0
20260902042037 87 0.0 1.0 0.00 0.00 0.00 45 1014.0
20260902041017 88 0.0 0.0 0.00 0.00 0.00 45 1013.8
20260902040017 88 0.0 1.0 0.00 0.00 0.00 45 1013.7
20260902035017 88 0.0 0.0 0.00 0.00 0.00 44 1013.6
20260902034017 88 0.0 1.0 0.00 0.00 0.00 42 1013.3
20260902033017 88 0.0 0.0 0.00 0.00 0.00 44 1013.2
20260902032017 89 0.0 0.0 0.00 0.00 0.00 43 1013.1
20260902031018 89 0.0 0.0 0.00 0.00 0.00 41 1012.8
20260902030057 89 0.0 0.0 0.00 0.00 0.00 40 1012.7
20260902025017 90 0.0 0.0 0.00 0.00 0.00 41 1012.5
20260902024017 90 0.0 0.0 0.00 0.00 0.00 40 1012.5
20260902023017 90 0.0 0.0 0.00 0.00 0.00 40 1012.5
20260902022017 91 0.0 1.0 0.00 0.00 0.00 40 1012.2
20260902021017 91 0.0 1.0 0.00 0.00 0.00 39 1012.3
20260902020038 91 0 1.0 4.0 0.00 0.00 0.00 39 1012.2
20260902015017 91 0.0 2.0 0.00 0.00 0.00 38 1012.0
20260902014017 92 0.0 2.0 0.00 0.00 0.00 38 1011.9
20260902013017 92 0 2.0 4.0 0.00 0.00 0.00 38 1012.0
20260902012017 92 0 1.0 3.0 0.00 0.00 0.00 38 1012.1
20260902011017 93 0 1.0 4.0 0.00 0.00 0.00 37 1012.1
20260902010037 93 0 1.0 3.0 0.00 0.00 0.00 38 1012.2
20260902005017 93 0.0 2.0 0.00 0.00 0.00 38 1012.4
20260902004017 93 0 1.0 3.0 0.00 0.00 0.00 38 1012.5
20260902003017 94 0.0 2.0 0.00 0.00 0.00 37 1012.6
20260902002016 94 0 2.0 6.0 0.00 0.00 0.00 36 1012.6
20260902001016 94 0.0 1.0 0.00 0.00 0.00 37 1012.7
20260902000016 94 0 1.0 4.0 0.00 0.00 0.00 37 1012.7
20260901235037 95 0 3.0 6.0 0.00 0.00 0.00 37 1012.7
20260901234017 95 0 2.0 5.0 0.00 0.00 0.00 37 1012.8
20260901233036 96 0 2.0 4.0 0.00 0.00 0.00 37 1013.0
20260901232017 95 0 2.0 5.0 0.00 0.00 0.00 37 1012.9
20260901231016 96 0 2.0 6.0 0.00 0.00 0.00 36 1013.2
20260901230016 96 0 2.0 4.0 0.00 0.00 0.00 36 1013.3
20260901225017 96 0 3.0 8.0 0.00 0.00 0.00 36 1013.2
20260901224016 97 0 2.0 5.0 0.00 0.00 0.00 36 1013.4
20260901223016 97 0 1.0 3.0 0.00 0.00 0.00 35 1013.4
20260901222016 96 0 2.0 5.0 0.00 0.00 0.00 37 1013.7
20260901221017 96 0 1.0 3.0 0.00 0.00 0.00 37 1013.7
20260901220036 95 0 1.0 3.0 0.00 0.00 0.00 38 1013.7
20260901215036 95 0 4.0 10.0 0.00 0.00 0.00 39 1014.0
20260901214016 94 0 2.0 5.0 0.00 0.00 0.00 40 1014.0
20260901213016 94 0 2.0 6.0 0.00 0.00 0.00 40 1014.2
20260901212137 94 0 4.0 8.0 0.00 0.00 0.00 39 1014.4
20260901211017 94 0 2.0 6.0 0.00 0.01 0.00 40 1014.5
20260901210016 95 0 2.0 5.0 0.00 0.01 0.00 38 1014.9
20260901205016 94 0 3.0 6.0 0.00 0.01 0.00 40 1014.9
20260901204016 94 0 3.0 6.0 0.00 0.01 0.00 40 1015.0
20260901203056 93 0 1.0 4.0 0.00 0.01 0.00 40 1015.2
20260901202016 93 0 2.0 6.0 0.00 0.01 0.00 41 1015.4
20260901201016 93 0 2.0 6.0 0.00 0.01 0.00 42 1015.5
20260901200016 92 0 1.0 3.0 0.00 0.01 0.00 43 1015.5
20260901195016 91 0 3.0 7.0 0.00 0.01 0.00 43 1015.7
20260901194016 91 0 4.0 7.0 0.00 0.01 0.00 43 1015.9
20260901193016 92 0 2.0 5.0 0.00 0.01 0.00 43 1016.0
20260901192017 93 0 1.0 3.0 0.00 0.01 0.00 43 1016.2
20260901191016 93 0 2.0 7.0 0.00 0.01 0.00 42 1016.4
20260901190016 92 0 1.0 2.0 0.00 0.01 0.00 44 1016.6
20260901185016 91 0 1.0 6.0 0.00 0.01 0.00 43 1016.5
20260901184016 91 0 2.0 5.0 0.00 0.01 0.00 43 1016.6
20260901183016 91 0 1.0 3.0 0.00 0.01 0.00 45 1016.8
20260901182016 90 0 2.0 4.0 0.00 0.01 0.00 45 1017.0
20260901181016 90 0 2.0 5.0 0.00 0.01 0.00 44 1017.0
20260901180015 90 0 3.0 7.0 0.00 0.01 0.00 47 1017.1
20260901175036 90 0 2.0 5.0 0.00 0.01 0.00 46 1017.2
20260901174017 89 0.0 2.0 0.00 0.01 0.00 47 1017.2
20260901173016 88 0 1.0 2.0 0.00 0.01 0.00 50 1017.2
20260901172016 88 0 2.0 5.0 0.00 0.01 0.00 48 1017.2
20260901171016 87 0 2.0 6.0 0.00 0.01 0.00 50 1017.2
20260901170016 86 0 2.0 4.0 0.00 0.01 0.00 50 1017.1
20260901165035 86 0 1.0 3.0 0.00 0.01 0.00 49 1017.2
20260901164015 86 0 1.0 3.0 0.00 0.01 0.00 52 1017.1
20260901163015 86 0 1.0 3.0 0.00 0.01 0.00 51 1017.1
20260901162015 85 0 1.0 2.0 0.00 0.01 0.00 53 1016.9
20260901161016 85 0 2.0 4.0 0.00 0.02 0.00 50 1017.0
20260901160016 85 0.0 2.0 0.00 0.04 0.00 54 1016.9
20260901155016 85 0 2.0 4.0 0.00 0.06 0.00 52 1016.8
20260901154015 84 0 1.0 3.0 0.00 0.07 0.00 55 1016.6
20260901153016 83 0 1.0 3.0 0.00 0.07 0.00 56 1016.6
20260901152516 82 0 1.0 3.0 0.00 0.08 0.00 57 1016.7
20260901151516 82 0.0 1.0 0.00 0.09 0.00 58 1016.7
20260901150518 81 0 1.0 2.0 0.00 0.10 0.00 61 1016.5
20260901145517 81 0.0 1.0 0.00 0.12 0.00 62 1016.7
20260901144517 80 0.0 2.0 0.00 0.16 0.00 65 1016.5
20260901143517 79 0.0 2.0 0.00 0.20 0.00 66 1016.4
20260901142517 78 0.0 0.0 0.00 0.23 0.00 68 1016.5
20260901141537 77 0.0 1.0 0.00 0.23 0.00 68 1016.4
20260901140537 77 0.0 0.0 0.00 0.23 0.00 67 1016.4
20260901135518 77 0.0 0.0 0.00 0.23 0.00 68 1016.4
20260901134517 76 0.0 0.0 0.00 0.23 0.00 71 1016.1
20260901133517 75 0.0 0.0 0.00 0.23 0.00 72 1015.9
20260901132537 74 0.0 0.0 0.00 0.23 0.00 73 1015.8
20260901131517 74 0.0 0.0 0.00 0.23 0.00 73 1015.8
20260901130537 74 0.0 0.0 0.00 0.23 0.00 73 1015.8
20260901130017 74 0.0 0.0 0.00 0.23 0.00 73 1015.8
20260901125017 74 0.0 0.0 0.00 0.23 0.00 73 1015.8
20260901124017 75 0.0 0.0 0.00 0.23 0.00 72 1015.7
20260901123038 75 0.0 0.0 0.00 0.23 0.00 72 1015.6
20260901122017 75 0.0 0.0 0.00 0.23 0.00 72 1015.6
20260901121057 75 0.0 0.0 0.00 0.23 0.00 72 1015.4
20260901120017 74 0.0 0.0 0.00 0.23 0.00 73 1015.3
20260901115017 74 0.0 0.0 0.00 0.23 0.00 73 1015.3
20260901114017 74 0.0 0.0 0.00 0.23 0.00 73 1015.2
20260901113017 74 0.0 0.0 0.00 0.23 0.00 73 1015.3
20260901112017 74 0.0 0.0 0.00 0.23 0.00 74 1015.2
20260901111017 74 0.0 0.0 0.00 0.23 0.00 74 1015.2
20260901110017 74 0.0 0.0 0.00 0.23 0.00 74 1015.1
20260901105017 74 0.0 0.0 0.00 0.23 0.00 75 1015.0
20260901104017 73 0.0 0.0 0.00 0.23 0.00 75 1015.0
20260901103037 73 0.0 0.0 0.00 0.23 0.00 76 1015.1
20260901102017 74 0.0 0.0 0.00 0.23 0.00 77 1015.1
20260901101016 74 0.0 0.0 0.00 0.23 0.00 77 1015.0
20260901100016 74 0.0 0.0 0.00 0.23 0.00 77 1015.1